Weather History for Bethel, AK

Change the Weather History Date:

Saturday, October 27, 2012

  Actual Average Record
Temperature  
Mean Temperature 26 °F 25 °F  
Max Temperature 32 °F 30 °F 48 °F (1925)
Min Temperature 20 °F 19 °F -5 °F (2008)
Degree Days  
Heating Degree Days 39 40  
Month to date heating degree days 865 910  
Since 1 July heating degree days 2302 2136  
Cooling Degree Days 0    
Month to date cooling degree days 0  
Year to date cooling degree days 0  
Moisture  
Dew Point 17 °F    
Average Humidity 0    
Maximum Humidity 0    
Minimum Humidity 0    
Precipitation  
Precipitation 0.00 in 0.05 in 1.16 in (2014)
Month to date precipitation 2.17 1.47  
Year to date precipitation 19.02 15.64  
Snow  
Snow 0.00 in 0.20 in 5.50 in (1982)
Month to date snowfall 0.2 3.4  
Since 1 July snowfall 0.3 4.0  
Since 1 September snowfall 0.3 4.0  
Snow Depth 0.00 in    
Sea Level Pressure  
Sea Level Pressure 30.17 in    
Wind  
Wind Speed 13 mph (NNE)    
Max Wind Speed 22 mph    
Max Gust Speed 25 mph    
Visibility 10 miles    
Events      
T = Trace of Precipitation, MM = Missing Value Source: NWS Daily Summary

Daily Weather History Graph

Daily Weather History Graph

Search for Another Location

Airport:

Trip Planner

Search our weather history database for the weather conditions in past years. The results will help you decide how hot, cold, wet, or windy it might be!

Date:

Astronomy

Oct. 27, 2012 Rise Set
Actual Time 10:01 AM AKDT 6:59 PM AKDT
Civil Twilight 9:16 AM AKDT 7:44 PM AKDT
Nautical Twilight 8:26 AM AKDT 8:34 PM AKDT
Astronomical Twilight 7:36 AM AKDT 9:24 PM AKDT
Moon 6:05 PM AKDT (10/27) 7:48 AM AKDT (10/27)
Length of Visible Light 10h 28m
Length of Day
8h 57m
Waxing Gibbous, 96% of the Moon is Illuminated
Oct 27
Waxing Gibbous
Oct 29
Full
Nov 6
Last Quarter
Nov 13
New
Nov 20
First Quarter

Hourly Weather History & Observations

Time (AKDT) Temp. Windchill Dew Point Humidity Pressure Visibility Wind Dir Wind Speed Gust Speed Precip Events Conditions
12:53 AM 23.0 °F 11.7 °F 16.0 °F 74% 30.25 in 10.0 mi North 11.5 mph - N/A   Clear
1:53 AM 23.0 °F 11.7 °F 15.1 °F 72% 30.25 in 10.0 mi NNE 11.5 mph - N/A   Clear
2:53 AM 21.9 °F 11.0 °F 15.1 °F 75% 30.24 in 10.0 mi NNE 10.4 mph - N/A   Clear
3:53 AM 21.0 °F 9.9 °F 15.1 °F 78% 30.24 in 10.0 mi NNE 10.4 mph - N/A   Clear
4:53 AM 21.0 °F 9.9 °F 15.1 °F 78% 30.22 in 10.0 mi North 10.4 mph - N/A   Clear
5:53 AM 19.9 °F 8.6 °F 15.1 °F 81% 30.21 in 10.0 mi North 10.4 mph - N/A   Clear
6:53 AM 19.9 °F 7.9 °F 15.1 °F 81% 30.20 in 10.0 mi NNE 11.5 mph - N/A   Clear
7:53 AM 19.9 °F 7.3 °F 16.0 °F 85% 30.19 in 10.0 mi NNE 12.7 mph - N/A   Clear
8:53 AM 21.0 °F 8.1 °F 16.0 °F 81% 30.19 in 10.0 mi NNE 13.8 mph - N/A   Clear
9:53 AM 21.9 °F 8.2 °F 16.0 °F 78% 30.18 in 10.0 mi NNE 16.1 mph - N/A   Clear
10:53 AM 21.9 °F 9.8 °F 16.0 °F 78% 30.18 in 10.0 mi NNE 12.7 mph - N/A   Clear
11:53 AM 25.0 °F 12.2 °F 18.0 °F 75% 30.18 in 10.0 mi NNE 16.1 mph - N/A   Clear
12:53 PM 27.0 °F 14.3 °F 19.0 °F 72% 30.17 in 10.0 mi NNE 17.3 mph - N/A   Clear
1:53 PM 28.9 °F 16.9 °F 19.9 °F 69% 30.17 in 10.0 mi NNE 17.3 mph - N/A   Clear
2:53 PM 30.9 °F 19.1 °F 21.0 °F 67% 30.15 in 10.0 mi NNE 18.4 mph 24.2 mph N/A   Clear
3:53 PM 32.0 °F 20.5 °F 19.9 °F 61% 30.14 in 10.0 mi NNE 18.4 mph - N/A   Clear
4:53 PM 32.0 °F 21.6 °F 19.9 °F 61% 30.14 in 10.0 mi North 15.0 mph - N/A   Clear
5:53 PM 30.9 °F 22.2 °F 19.0 °F 61% 30.13 in 10.0 mi NNE 10.4 mph - N/A   Clear
6:53 PM 28.9 °F 18.6 °F 19.0 °F 67% 30.13 in 10.0 mi NNE 12.7 mph - N/A   Clear
7:53 PM 27.0 °F 15.6 °F 19.0 °F 72% 30.12 in 10.0 mi NNE 13.8 mph - N/A   Clear
8:53 PM 26.1 °F 14.5 °F 19.0 °F 75% 30.13 in 10.0 mi NNE 13.8 mph - N/A   Clear
9:53 PM 25.0 °F 13.6 °F 18.0 °F 75% 30.13 in 10.0 mi NNE 12.7 mph - N/A   Clear
10:53 PM 24.1 °F 13.1 °F 18.0 °F 77% 30.13 in 10.0 mi NNE 11.5 mph - N/A   Clear
11:53 PM 23.0 °F 13.1 °F 18.0 °F 81% 30.13 in 10.0 mi NNE 9.2 mph - N/A   Clear